Regional Weather Roundup
Issued by NWS

Home | Current Version | Previous Version | Text Only | Print | Product List | Glossary Off
Versions: 1 2 3 4 5 6 7 8 9 10 11 12 13 14 15 16 17 18 19 20 21 22 23 24 25 26 27 28 29 30 31 32 33 34 35 36 37 38 39 40 41 42 43 44 45 46 47 48 49 50

000
ASUS43 KDTX 272210
RWRMI
MICHIGAN HOURLY REGIONAL WEATHER ROUNDUP
NATIONAL WEATHER SERVICE DETROIT/PONTIAC MI
600 PM EDT MON JUL 27 2015

NOTE: "FAIR" INDICATES FEW OR NO CLOUDS BELOW 12,000 FEET WITH NO
SIGNIFICANT WEATHER AND/OR OBSTRUCTION TO VISIBILITY.

MIZ047>049-052>055-059>063-066>070-074>076-081>083-272300-
SOUTHEAST LOWER MICHIGAN

CITY           SKY/WX    TMP DP  RH WIND       PRES   REMARKS
ADRIAN           N/A     85  60  42 E8        30.02F
ALMA             N/A     87  58  36 CALM      30.03F
ANN ARBOR        N/A     87  60  40 MISG      30.01F
BAD AXE        PTSUNNY   88  61  40 W5        30.02S
DETROIT CITY     N/A     86  63  45 SE8       30.02S
DETROIT          N/A     88  60  38 E6        30.01S
FLINT            N/A     90  59  35 S7        30.02F
GROSSE ILE       N/A     82  66  57 S7        30.00F
HILLSDALE        N/A     84  58  40 E8        30.04S
HOWELL           N/A     87  54  32 CALM      30.03S

CITY           SKY/WX    TMP DP  RH WIND       PRES   REMARKS
JACKSON          N/A     87  59  38 CALM      30.03F
LAMBERTVILLE     N/A     85  60  43 E5        30.02S
LANSING          N/A     87  62  43 MISG      30.03S
LAPEER         NOT AVBL
MASON            N/A     84  58  41 CALM      30.03S
MONROE           N/A     84  64  50 E5        30.01S
MT. CLEMENS    MOSUNNY   87  61  42 VRB3      30.00F
PONTIAC          N/A     90  55  30 NW3       30.01F
PORT HOPE        N/A     77  69  76 E10       30.01S
PORT HURON       N/A     86  59  39 NE6       30.02S
TRI CITIES       N/A     89  61  38 W7        30.02F
YPSILANTI        N/A     92  59  33 SE3       30.01F HX  91
$$
MIZ043>046-050>051-056>058-064>065-071>073-077>080-272300-
SOUTHWEST LOWER MICHIGAN

CITY           SKY/WX    TMP DP  RH WIND       PRES   REMARKS
BATTLE CREEK     N/A     87  63  44 VRB6      30.02F
BENTON HARBOR    N/A     84  66  54 N6        30.00S
BIG RAPIDS       N/A     88  56  34 SW8       30.02F
COLDWATER        N/A     82  61  49 E8        30.01F
HOLLAND          N/A     89  62  40 E6        30.01F
GRAND RAPIDS     N/A     87  61  41 E6        30.02F
KALAMAZOO        N/A     87  63  44 VRB5      30.02F
MARSHALL         N/A     86  60  41 SE3       30.02F
MUSKEGON       PTSUNNY   86  62  44 NW8       30.01F
$$
MIZ016>042-272300-
NORTHERN LOWER MICHIGAN

CITY           SKY/WX    TMP DP  RH WIND       PRES   REMARKS
ALPENA           N/A     85  63  47 SE9       30.01S
BEAVER ISLAND    N/A     79  64  60 W7        30.03S
BELLAIRE         N/A     85  59  40 NW7       30.01F
CADILLAC       CLOUDY    90  55  29 CALM      30.03S
CHARLEVOIX       N/A     81  64  55 W9        30.05S
FRANKFORT        N/A     87  59  38 NW7       30.03S
GAYLORD          N/A     88  55  32 SW6       30.03F
GRAYLING         N/A     89  56  32 N8        30.03F
HARBOR SPRINGS   N/A     74  67  78 SW8       30.01F
HOUGHTON LAKE    N/A     89  55  31 SW6       30.03F
MANISTEE         N/A     81  57  44 NW8       30.03F
OSCODA           N/A     82  63  53 SE10G18   30.01S
PELLSTON         N/A     92  55  28 NW9       30.01S HX  90
TRAVERSE CITY    N/A     87  64  46 NE9       30.00F
$$
MIZ007>008-015-272300-
EASTERN UPPER MICHIGAN

CITY           SKY/WX    TMP DP  RH WIND       PRES   REMARKS
KINROSS        PTSUNNY   90  63  40 W6        29.99F HX  90
MACKINAC ISLAN   N/A     82  61  48 W6        30.01S
$$
MIZ004>006-011>014-085-272300-
CENTRAL UPPER MICHIGAN

CITY           SKY/WX    TMP DP  RH WIND       PRES   REMARKS
MANISTIQUE       N/A     77  66  69 S10G20    30.01S
ESCANABA         N/A     84  61  45 S12       29.99F
MENOMINEE        N/A     86  61  42 S7        30.01S
SAWYER-GWINN   SUNNY     90  59  35 SW8       30.01S
$$
MIZ001>003-009>011-084-272300-
WESTERN UPPER MICHIGAN

CITY           SKY/WX    TMP DP  RH WIND       PRES   REMARKS
IRON MOUNTAIN    N/A     89  58  34 S8        30.01F
HOUGHTON         N/A     86  69  56 E7        29.98S HX  90
COPPER HARBOR    N/A     74  63  68 VRB3      29.97F
IRONWOOD         N/A     88  55  33 S8        29.95S
$$

ABBREVIATIONS USED IN REMARKS
   TC - TEMPERATURE IN CELSIUS
  WCI - WIND CHILL INDEX
   HX - HEAT INDEX
  VSB - VISIBILITY




USA.gov is the U.S. government's official web portal to all federal, state and local government web resources and services.